GFSFLT2_con_3kmhel_195.txt.gz
Helicity
184 140 138 147 148 146 122 119 125 132 141 148 150 137 143 136 124 107 109 105 83 67 66 56 39 21 19 43 208 174 206 180
201 174 149 152 162 164 143 135 134 151 163 166 177 160 146 159 131 135 125 107 80 67 69 60 46 23 28 53 264 265 210 193
162 148 139 153 168 165 160 156 138 132 164 184 216 205 206 188 164 147 127 118 89 70 66 72 59 38 33 79 239 254 242 217
194 168 138 126 153 161 177 180 171 183 216 234 240 229 208 182 204 174 151 131 109 87 70 72 80 74 77 166 264 282 249 210
241 188 137 121 164 184 189 219 219 196 212 230 245 230 212 226 254 216 197 164 144 114 90 60 92 115 157 241 335 329 272 215
325 264 182 102 126 176 201 205 211 245 266 262 274 251 241 295 292 253 229 201 163 138 99 64 90 132 231 270 314 305 270 226
249 286 247 148 111 139 193 208 220 231 267 278 288 268 282 341 335 302 255 208 171 128 117 122 131 127 226 268 307 314 311 280
219 225 200 203 160 164 218 241 213 258 260 301 287 254 287 327 318 277 242 209 185 166 144 161 182 230 302 311 340 368 355 369
218 252 273 235 197 193 234 274 318 307 282 323 322 268 258 353 340 319 270 219 186 157 202 253 303 299 366 447 432 378 374 387
76 190 228 218 194 202 229 253 276 313 312 339 329 352 272 335 430 357 331 257 233 208 278 338 335 355 475 521 446 384 337 321
225 199 213 239 239 227 225 255 255 303 363 384 330 324 305 362 365 428 434 374 349 353 354 362 370 421 521 550 491 374 279 272
220 204 207 275 204 177 176 199 257 320 363 377 393 322 319 432 399 410 472 458 462 484 461 413 410 446 518 573 489 383 320 255
-18 70 184 141 144 128 144 156 174 261 327 373 393 348 311 369 447 494 556 527 590 641 629 541 496 542 636 594 544 429 366 304
42 31 11 55 109 133 130 142 160 218 236 279 358 376 356 406 416 524 500 654 662 737 688 657 651 628 617 722 636 535 440 416
83 68 59 109 85 60 124 189 172 186 188 233 277 312 397 455 444 469 531 651 684 765 722 678 723 718 682 701 754 596 636 453
38 39 116 146 97 28 11 51 112 147 188 162 219 350 323 390 477 492 495 548 625 831 764 734 695 791 745 605 546 526 697 625
44 77 105 53 81 87 49 48 85 129 158 146 161 168 213 338 410 419 478 631 615 781 775 697 697 787 915 652 650 583 588 665
152 170 152 152 140 140 119 36 10 29 49 145 150 104 140 155 263 412 452 557 567 622 700 774 713 761 813 713 777 778 684 733
196 199 196 186 153 134 145 135 88 15 72 80 47 119 139 159 175 192 407 492 513 604 678 837 657 749 781 772 746 705 654 647
139 143 148 127 143 132 155 125 151 127 108 115 143 111 99 126 183 229 233 330 511 598 723 777 740 751 743 750 708 689 665 701

GFSFLT2_con_3kmhel_201.txt.gz
Helicity
152 126 121 143 159 147 140 117 113 119 109 103 108 105 101 108 105 105 100 99 68 56 65 55 96 114 131 169 191 201 193 164
128 142 101 114 122 129 116 116 122 122 118 114 113 113 112 121 125 130 125 98 72 64 69 75 107 118 141 180 195 218 216 182
94 105 100 105 110 117 112 119 119 116 124 128 140 144 128 126 135 141 131 98 80 68 78 101 119 113 141 188 224 227 210 182
55 70 101 95 97 107 118 117 134 148 139 146 176 149 132 134 129 149 134 111 99 96 89 126 133 139 184 231 241 234 227 187
57 62 111 102 85 100 136 161 156 157 173 200 191 177 174 178 171 176 152 128 112 113 109 138 147 164 188 223 274 275 244 205
107 98 113 97 99 80 87 130 156 185 200 220 213 213 205 201 191 176 161 171 119 101 105 129 149 170 190 236 266 284 280 254
148 150 112 99 97 83 60 65 92 140 183 203 220 229 219 198 176 175 155 168 156 123 111 129 146 177 207 251 282 290 282 286
183 148 126 114 110 94 78 65 80 122 154 189 206 209 212 201 186 159 146 131 167 164 126 135 179 215 223 243 271 302 313 314
182 183 193 159 146 125 117 113 107 116 150 170 199 223 227 215 217 219 217 192 183 168 147 156 213 250 238 264 303 326 327 325
182 188 216 190 176 152 148 142 119 107 127 164 171 173 196 223 242 247 247 271 274 246 213 186 182 249 314 311 327 353 351 340
250 218 232 201 178 172 151 120 90 94 107 135 156 188 215 265 277 258 314 329 316 294 292 264 239 288 321 396 421 384 384 384
286 217 194 202 182 138 113 84 80 105 126 135 111 129 131 206 270 294 354 359 321 346 339 288 349 377 391 407 394 437 456 417
404 371 296 237 199 140 119 104 97 94 115 116 138 133 130 138 153 227 342 380 382 403 341 350 372 431 632 544 527 454 439 460
467 428 358 263 193 135 104 87 93 97 109 101 90 99 105 125 155 192 220 315 341 378 423 429 444 551 601 490 629 506 493 421
410 343 309 259 218 151 116 100 99 111 120 132 106 127 168 200 185 185 202 232 313 333 386 334 455 639 609 861 592 576 793 595
345 274 216 202 178 162 126 86 63 32 63 84 110 144 181 173 179 181 185 169 109 111 266 338 520 450 545 617 640 647 651 808
310 204 106 50 27 18 -2 -20 -16 -17 27 74 93 144 165 161 162 169 142 134 133 122 121 140 279 316 451 841 735 836 818 714
223 154 126 102 63 24 15 16 8 31 79 120 124 131 135 107 95 129 115 131 160 157 158 155 192 223 337 377 517 934 817 1054
144 126 109 72 36 22 22 29 58 72 44 41 82 117 126 109 87 116 166 134 91 151 185 186 202 236 253 308 372 535 684 542
122 82 59 65 61 53 65 83 83 113 130 155 147 145 162 165 199 240 245 221 157 91 74 144 138 180 209 264 396 533 536 746

GFSFLT2_con_3kmhel_204.txt.gz
Helicity
96 101 123 123 124 110 100 112 127 133 128 114 100 103 100 88 87 89 107 107 84 69 103 116 115 116 123 127 149 162 145 117
83 75 107 99 95 88 82 88 101 112 119 105 100 109 101 92 96 105 111 111 101 74 89 114 107 133 135 150 161 173 164 147
68 56 80 77 69 65 69 68 85 98 114 110 122 115 107 110 111 113 114 112 112 96 87 106 100 111 126 156 180 181 190 172
57 49 48 50 49 65 78 66 91 115 120 134 132 121 122 119 121 125 115 108 109 110 94 104 103 100 122 160 174 193 186 170
68 62 47 38 35 56 79 86 99 114 123 138 127 138 144 145 157 145 126 112 116 125 118 112 105 96 120 166 185 200 198 189
109 105 77 42 40 54 89 98 104 111 113 122 141 141 152 154 143 137 125 111 106 107 119 118 109 107 115 139 153 183 213 195
140 151 98 78 71 64 80 88 101 99 115 125 143 138 124 130 132 140 139 135 113 115 119 108 109 112 128 140 173 194 194 198
177 158 126 120 116 107 107 94 94 101 114 134 144 143 134 144 144 147 150 145 144 143 147 155 145 151 128 153 177 221 230 226
150 151 185 163 135 131 136 111 92 88 87 89 103 134 140 151 147 168 175 206 201 212 201 202 190 183 171 182 187 213 245 263
145 159 185 179 139 127 131 110 109 84 74 81 89 105 129 141 149 172 183 201 221 223 256 274 233 217 217 237 256 267 261 263
130 134 161 190 161 154 144 134 97 70 59 69 81 103 129 154 153 140 179 223 235 240 232 265 307 307 252 269 280 312 308 340
253 218 193 198 196 191 180 157 98 71 58 60 85 110 122 138 149 147 189 242 242 293 286 326 317 311 308 371 325 332 339 373
333 302 308 275 248 235 209 147 102 76 65 73 76 87 94 111 126 132 184 221 228 254 282 278 351 401 416 412 448 492 404 438
442 407 368 342 299 291 248 223 192 152 112 99 89 90 101 139 142 156 183 210 238 263 272 299 347 404 340 466 445 515 440 479
475 458 452 436 390 332 291 234 190 172 143 115 130 166 170 179 195 214 233 240 252 223 235 250 270 332 334 360 297 316 556 616
451 412 377 346 298 281 255 228 209 141 102 87 102 118 130 154 166 179 201 228 243 220 183 180 198 213 246 293 375 325 451 620
385 376 339 301 275 226 176 137 62 40 56 67 65 74 90 104 125 158 188 201 222 231 239 192 181 197 226 244 217 222 495 463
372 350 295 243 181 120 81 48 24 33 25 20 19 56 92 117 134 141 132 163 204 220 207 216 247 234 218 224 303 353 415 416
291 250 217 164 134 101 62 36 10 -13 -21 -1 43 85 113 137 162 158 164 167 172 170 233 254 219 204 194 215 230 269 317 327
246 203 169 130 97 47 10 -3 -16 -10 15 65 102 119 115 122 163 164 163 170 188 218 282 274 239 217 155 155 170 185 185 261

GFSFLT2_con_3kmhel_207.txt.gz
Helicity
61 55 79 83 109 132 111 106 122 121 122 113 108 107 90 86 87 86 83 74 79 83 67 74 79 64 66 89 108 102 85 77
64 60 82 82 66 89 97 85 88 98 101 100 109 105 87 89 97 93 96 93 74 90 78 83 88 79 66 73 79 89 73 79
60 55 57 56 40 50 63 59 59 72 79 86 104 83 81 88 91 108 102 100 88 93 90 84 89 83 75 82 83 79 79 74
58 52 48 47 31 35 41 46 54 63 67 80 75 79 83 78 93 118 116 104 94 93 96 87 82 82 83 86 82 83 86 87
67 66 51 45 32 35 65 55 65 69 70 72 71 76 79 79 95 96 97 98 86 90 96 88 84 85 78 76 73 90 97 95
76 83 87 57 48 32 48 62 77 83 79 70 71 86 88 71 67 76 87 88 80 77 83 96 101 104 105 103 97 102 104 100
89 110 111 91 84 51 57 64 67 80 80 65 80 75 71 62 58 63 66 70 71 73 73 74 86 96 109 106 111 123 124 137
99 115 118 108 93 79 85 78 71 66 63 66 65 77 83 58 60 68 70 96 113 114 122 117 99 112 104 104 100 112 120 143
85 102 123 118 98 90 98 104 84 66 65 69 66 73 70 58 59 71 69 86 98 126 141 149 147 141 152 147 143 134 129 140
61 76 109 125 121 126 137 136 114 83 74 62 52 53 53 50 45 58 76 81 87 103 139 156 173 188 183 189 190 181 159 161
85 104 132 145 165 173 153 151 131 115 95 70 42 33 38 54 55 58 91 120 138 153 182 214 220 238 227 233 223 218 189 201
145 192 192 165 173 202 192 170 157 135 88 72 66 44 63 62 74 57 83 108 137 159 172 221 217 214 248 283 306 281 283 207
218 246 243 272 275 280 271 245 201 169 147 140 120 123 118 108 112 99 119 143 157 170 199 220 241 282 332 302 307 280 288 298
294 325 345 355 338 325 320 282 268 220 198 204 194 179 162 144 155 164 179 177 174 188 214 245 258 292 313 347 317 224 217 243
372 409 445 432 389 382 384 337 300 281 247 187 159 142 143 149 150 146 148 159 179 195 198 206 255 252 232 303 318 298 199 198
462 496 524 513 433 402 360 307 270 209 155 117 106 111 116 111 108 110 120 138 146 154 174 202 229 268 262 274 261 310 289 248
481 489 482 436 383 314 272 244 200 143 102 95 90 88 74 64 75 85 101 118 122 141 162 204 262 289 289 279 258 264 288 327
421 403 376 331 301 256 206 141 101 93 85 84 68 48 45 45 80 92 100 125 150 170 182 188 210 242 262 244 264 356 301 274
368 332 318 273 233 186 134 101 73 70 66 45 24 12 8 30 74 99 125 135 152 174 186 183 179 195 202 268 285 278 256 241
329 296 267 221 185 140 92 71 54 33 18 2 3 19 48 76 100 121 114 125 139 151 181 186 188 216 200 265 300 248 202 186